Total_Precipitation_Accumulation
0.06 0.13 0.27 0.38 0.49 0.38 0.25 0.22 0.29 0.29 0.30 0.30 0.31 0.41 0.53 0.64 0.77 0.89 0.91 0.83 0.74 0.71 0.67 0.63 0.60 0.55 0.51 0.47 0.41 0.34 0.29 0.25 0.20 0.15 0.11 0.07 0.04 0.03 0.02 0.02 0.02 0.02 0.01
0.06 0.14 0.27 0.40 0.53 0.54 0.46 0.41 0.44 0.53 0.60 0.69 0.89 1.09 1.25 1.44 1.60 1.63 1.41 1.22 1.10 1.01 0.94 0.88 0.82 0.74 0.68 0.60 0.50 0.42 0.35 0.27 0.20 0.15 0.11 0.07 0.04 0.02 0.01 0.01 0.01 0.00 0.00
0.06 0.11 0.21 0.36 0.48 0.51 0.52 0.49 0.54 0.70 0.89 1.07 1.34 1.61 1.83 1.96 1.96 1.81 1.61 1.47 1.37 1.28 1.17 1.05 0.96 0.86 0.76 0.67 0.57 0.46 0.36 0.26 0.17 0.12 0.09 0.07 0.04 0.02 0.01 0.00 0.00 0.00 0.00
0.05 0.11 0.17 0.32 0.45 0.49 0.54 0.61 0.76 1.04 1.28 1.51 1.77 2.11 2.34 2.33 2.21 1.99 1.75 1.61 1.47 1.27 1.09 1.02 0.96 0.84 0.70 0.55 0.42 0.31 0.22 0.15 0.10 0.06 0.04 0.03 0.02 0.03 0.02 0.01 0.00 0.00 0.00
0.04 0.10 0.15 0.27 0.42 0.47 0.57 0.74 1.00 1.40 1.76 2.13 2.41 2.58 2.48 2.29 2.09 1.82 1.57 1.35 1.18 1.02 0.92 0.84 0.73 0.58 0.43 0.28 0.19 0.13 0.09 0.06 0.04 0.03 0.02 0.02 0.02 0.02 0.03 0.02 0.01 0.00 0.00
0.06 0.11 0.17 0.26 0.40 0.56 0.70 0.89 1.22 1.66 2.00 2.22 2.36 2.23 1.98 1.82 1.61 1.34 1.10 0.90 0.77 0.66 0.54 0.41 0.31 0.23 0.15 0.09 0.06 0.04 0.03 0.03 0.02 0.02 0.01 0.01 0.01 0.01 0.02 0.02 0.01 0.01 0.00
0.07 0.13 0.19 0.28 0.45 0.62 0.79 0.96 1.13 1.36 1.56 1.66 1.69 1.61 1.44 1.22 1.06 0.87 0.72 0.59 0.48 0.38 0.28 0.19 0.13 0.09 0.05 0.03 0.02 0.02 0.01 0.01 0.01 0.01 0.01 0.01 0.01 0.01 0.02 0.02 0.02 0.03 0.01
0.11 0.17 0.25 0.34 0.48 0.63 0.75 0.80 0.87 0.96 0.98 0.95 0.96 0.95 0.87 0.78 0.70 0.58 0.50 0.41 0.32 0.22 0.15 0.10 0.07 0.05 0.03 0.02 0.02 0.01 0.01 0.01 0.01 0.01 0.01 0.01 0.01 0.01 0.01 0.02 0.02 0.03 0.01
0.17 0.22 0.29 0.36 0.43 0.50 0.53 0.54 0.54 0.57 0.57 0.54 0.54 0.54 0.51 0.48 0.42 0.33 0.26 0.21 0.16 0.10 0.07 0.05 0.03 0.03 0.02 0.02 0.01 0.01 0.00 0.01 0.01 0.01 0.01 0.01 0.01 0.01 0.01 0.02 0.03 0.07 0.08
0.23 0.27 0.30 0.33 0.35 0.35 0.36 0.36 0.33 0.35 0.36 0.35 0.34 0.33 0.31 0.27 0.21 0.16 0.14 0.10 0.06 0.04 0.04 0.03 0.02 0.01 0.01 0.01 0.01 0.01 0.00 0.00 0.01 0.01 0.01 0.02 0.02 0.02 0.03 0.04 0.05 0.07 0.12
0.28 0.32 0.34 0.30 0.27 0.25 0.25 0.26 0.27 0.26 0.24 0.22 0.20 0.19 0.15 0.12 0.10 0.08 0.06 0.04 0.03 0.02 0.01 0.01 0.00 0.00 0.00 0.00 0.00 0.01 0.01 0.01 0.01 0.02 0.02 0.04 0.04 0.05 0.05 0.05 0.05 0.06 0.09
0.33 0.35 0.32 0.26 0.25 0.25 0.24 0.24 0.20 0.18 0.16 0.14 0.11 0.09 0.07 0.06 0.06 0.05 0.03 0.02 0.01 0.01 0.01 0.00 0.00 0.01 0.01 0.01 0.01 0.01 0.02 0.03 0.03 0.03 0.04 0.04 0.05 0.06 0.06 0.05 0.05 0.05 0.08
0.47 0.41 0.32 0.28 0.27 0.25 0.22 0.19 0.16 0.13 0.11 0.09 0.07 0.07 0.05 0.04 0.04 0.03 0.02 0.01 0.01 0.01 0.02 0.02 0.02 0.01 0.01 0.01 0.02 0.02 0.02 0.02 0.03 0.03 0.03 0.03 0.04 0.04 0.04 0.06 0.06 0.07 0.09
0.49 0.38 0.30 0.27 0.25 0.23 0.21 0.17 0.14 0.10 0.08 0.07 0.06 0.05 0.05 0.04 0.04 0.04 0.03 0.03 0.03 0.03 0.03 0.03 0.02 0.02 0.01 0.01 0.01 0.01 0.01 0.01 0.01 0.02 0.02 0.02 0.03 0.04 0.07 0.08 0.10 0.13 0.16
0.47 0.39 0.35 0.33 0.29 0.26 0.21 0.17 0.14 0.12 0.10 0.09 0.08 0.08 0.08 0.07 0.08 0.07 0.06 0.06 0.05 0.04 0.03 0.02 0.01 0.01 0.00 0.00 0.00 0.00 0.00 0.00 0.01 0.01 0.02 0.02 0.03 0.05 0.09 0.11 0.15 0.19 0.23
0.57 0.47 0.42 0.38 0.37 0.36 0.33 0.31 0.29 0.25 0.21 0.19 0.17 0.16 0.14 0.13 0.12 0.10 0.08 0.06 0.04 0.02 0.01 0.00 0.00 0.00 0.00 0.00 0.00 0.00 0.00 0.00 0.01 0.02 0.03 0.02 0.02 0.04 0.06 0.10 0.14 0.21 0.25
0.64 0.56 0.55 0.54 0.54 0.54 0.52 0.48 0.41 0.33 0.27 0.24 0.21 0.18 0.15 0.12 0.09 0.06 0.04 0.02 0.02 0.01 0.01 0.01 0.00 0.01 0.01 0.00 0.00 0.00 0.00 0.01 0.03 0.05 0.05 0.04 0.03 0.06 0.08 0.08 0.09 0.09 0.12
0.63 0.63 0.65 0.68 0.67 0.61 0.51 0.40 0.30 0.24 0.21 0.18 0.15 0.12 0.09 0.06 0.04 0.02 0.01 0.02 0.02 0.02 0.02 0.02 0.01 0.02 0.01 0.00 0.00 0.00 0.01 0.02 0.03 0.04 0.05 0.07 0.07 0.08 0.08 0.06 0.05 0.06 0.09
0.52 0.57 0.60 0.63 0.60 0.50 0.37 0.27 0.20 0.16 0.13 0.12 0.09 0.06 0.04 0.03 0.02 0.02 0.02 0.02 0.03 0.03 0.02 0.01 0.01 0.03 0.03 0.01 0.00 0.00 0.01 0.01 0.02 0.02 0.03 0.05 0.08 0.08 0.09 0.08 0.08 0.08 0.11
0.44 0.50 0.51 0.48 0.42 0.32 0.22 0.17 0.14 0.12 0.11 0.09 0.06 0.04 0.03 0.02 0.02 0.02 0.02 0.02 0.03 0.03 0.03 0.02 0.02 0.04 0.06 0.02 0.00 0.01 0.01 0.02 0.01 0.01 0.03 0.05 0.08 0.09 0.09 0.07 0.10 0.16 0.18
0.40 0.40 0.36 0.32 0.25 0.18 0.14 0.14 0.12 0.10 0.08 0.06 0.05 0.04 0.03 0.02 0.02 0.03 0.03 0.03 0.03 0.04 0.04 0.04 0.05 0.06 0.05 0.02 0.01 0.01 0.02 0.03 0.03 0.04 0.06 0.09 0.11 0.10 0.08 0.08 0.13 0.21 0.25
0.30 0.28 0.24 0.19 0.14 0.12 0.12 0.11 0.09 0.07 0.06 0.07 0.07 0.05 0.04 0.02 0.02 0.04 0.05 0.04 0.05 0.05 0.06 0.06 0.07 0.07 0.05 0.02 0.01 0.01 0.02 0.03 0.05 0.07 0.09 0.12 0.13 0.11 0.11 0.12 0.19 0.26 0.37
0.16 0.13 0.10 0.09 0.08 0.08 0.08 0.08 0.06 0.05 0.05 0.06 0.07 0.05 0.03 0.03 0.02 0.03 0.04 0.05 0.06 0.06 0.05 0.05 0.06 0.06 0.05 0.04 0.01 0.01 0.02 0.04 0.06 0.11 0.17 0.18 0.16 0.18 0.23 0.28 0.34 0.41 0.50
0.06 0.06 0.05 0.06 0.06 0.06 0.06 0.06 0.06 0.07 0.08 0.09 0.07 0.05 0.05 0.04 0.02 0.02 0.02 0.03 0.04 0.04 0.04 0.05 0.05 0.05 0.05 0.04 0.03 0.03 0.03 0.05 0.07 0.12 0.22 0.30 0.32 0.35 0.42 0.48 0.51 0.51 0.54
0.05 0.06 0.07 0.06 0.05 0.04 0.04 0.04 0.05 0.06 0.09 0.08 0.05 0.05 0.05 0.04 0.03 0.03 0.02 0.02 0.02 0.01 0.02 0.03 0.03 0.05 0.05 0.05 0.06 0.07 0.06 0.07 0.11 0.13 0.18 0.27 0.34 0.40 0.45 0.47 0.49 0.47 0.44
0.07 0.06 0.05 0.04 0.03 0.02 0.01 0.01 0.02 0.03 0.05 0.05 0.04 0.03 0.03 0.03 0.03 0.04 0.05 0.02 0.00 0.01 0.01 0.02 0.03 0.03 0.05 0.04 0.04 0.06 0.08 0.10 0.13 0.15 0.22 0.31 0.39 0.45 0.48 0.48 0.46 0.42 0.39